Weather History for Santa Rosa, CA

Change the Weather History Date:

Friday, January 10, 2014

  Actual Average Record
Temperature  
Mean Temperature 49 °F 46 °F  
Max Temperature 64 °F 56 °F 64 °F (2012)
Min Temperature 33 °F 36 °F 25 °F (2011)
Degree Days  
Heating Degree Days 16    
Month to date heating degree days 169  
Since 1 July heating degree days 1280  
Cooling Degree Days 0    
Month to date cooling degree days 0  
Year to date cooling degree days 0  
Moisture  
Dew Point 41 °F    
Average Humidity 72    
Maximum Humidity 100    
Minimum Humidity 44    
Precipitation  
Precipitation 0.00 in 0.27 in 1.16 in (2001)
Month to date precipitation 0.00 2.96  
Year to date precipitation 0.00 2.96  
Since 1 July precipitation 2.02 17.15  
Sea Level Pressure  
Sea Level Pressure 30.21 in    
Wind  
Wind Speed 2 mph (South)    
Max Wind Speed 8 mph    
Max Gust Speed 10 mph    
Visibility 8 miles    
Events Fog    
T = Trace of Precipitation, MM = Missing Value Source: NWS Daily Summary

Daily Weather History Graph

Daily Weather History Graph

Search for Another Location

Airport:

Trip Planner

Search our weather history database for the weather conditions in past years. The results will help you decide how hot, cold, wet, or windy it might be!

Date:

Astronomy

Jan. 10, 2014 Rise Set
Actual Time 7:28 AM PST 5:09 PM PST
Civil Twilight 6:59 AM PST 5:38 PM PST
Nautical Twilight 6:26 AM PST 6:11 PM PST
Astronomical Twilight 5:54 AM PST 6:43 PM PST
Moon 1:15 PM PST (1/10) 2:42 AM PST (1/10)
Length of Visible Light 10h 39m
Length of Day
9h 40m
Waxing Gibbous, 76% of the Moon is Illuminated
Jan 10
Waxing Gibbous
Jan 15
Full
Jan 23
Last Quarter
Jan 30
New
Feb 6
First Quarter

Hourly Weather History & Observations

Time (PST) Temp. Windchill Dew Point Humidity Pressure Visibility Wind Dir Wind Speed Gust Speed Precip Events Conditions
12:53 AM 41.0 °F 39.0 °F 36.0 °F 82% 30.22 in 10.0 mi SSW 3.5 mph - N/A   Clear
1:53 AM 39.9 °F 37.8 °F 35.1 °F 83% 30.23 in 10.0 mi SSW 3.5 mph - N/A   Clear
2:53 AM 37.9 °F 35.5 °F 35.1 °F 89% 30.21 in 10.0 mi SE 3.5 mph - N/A   Clear
3:53 AM 36.0 °F - 34.0 °F 93% 30.21 in 10.0 mi Calm Calm - N/A   Clear
4:53 AM 37.0 °F 34.5 °F 34.0 °F 89% 30.21 in 10.0 mi West 3.5 mph - N/A   Clear
5:53 AM 36.0 °F - 34.0 °F 93% 30.22 in 10.0 mi Calm Calm - N/A   Clear
6:53 AM 34.0 °F 31.0 °F 33.1 °F 96% 30.23 in 10.0 mi North 3.5 mph - N/A   Clear
7:53 AM 34.0 °F - 34.0 °F 100% 30.25 in 8.0 mi Calm Calm - N/A   Mostly Cloudy
8:53 AM 39.9 °F - 37.9 °F 93% 30.27 in 10.0 mi Calm Calm - N/A   Mostly Cloudy
9:53 AM 46.9 °F - 41.0 °F 80% 30.29 in 10.0 mi Calm Calm - N/A   Clear
10:53 AM 51.1 °F - 43.0 °F 74% 30.28 in 10.0 mi Calm Calm - N/A   Mostly Cloudy
11:53 AM 55.9 °F - 44.1 °F 64% 30.25 in 10.0 mi Calm Calm - N/A   Mostly Cloudy
12:53 PM 60.1 °F - 43.0 °F 53% 30.20 in 10.0 mi Calm Calm - N/A   Mostly Cloudy
1:53 PM 61.0 °F - 43.0 °F 52% 30.18 in 10.0 mi SSW 5.8 mph - N/A   Mostly Cloudy
2:53 PM 63.0 °F - 44.1 °F 50% 30.17 in 10.0 mi SSE 4.6 mph - N/A   Clear
3:53 PM 64.0 °F - 43.0 °F 46% 30.16 in 10.0 mi Calm Calm - N/A   Mostly Cloudy
4:53 PM 61.0 °F - 46.0 °F 58% 30.15 in 10.0 mi South 4.6 mph - N/A   Clear
5:53 PM 53.1 °F - 46.0 °F 77% 30.16 in 10.0 mi SSE 4.6 mph - N/A   Clear
6:53 PM 50.0 °F - 45.0 °F 83% 30.17 in 10.0 mi South 3.5 mph - N/A   Clear
7:53 PM 48.0 °F - 45.0 °F 89% 30.18 in 10.0 mi South 4.6 mph - N/A   Clear
8:53 PM 46.0 °F - 44.1 °F 93% 30.18 in 10.0 mi Calm Calm - N/A   Clear
9:53 PM 44.1 °F - 43.0 °F 96% 30.19 in 9.0 mi Calm Calm - N/A   Clear
10:51 PM 42.8 °F - 42.8 °F 100% 30.20 in 1.8 mi Calm Calm - N/A   Clear
10:53 PM 42.1 °F - 42.1 °F 100% 30.19 in 1.8 mi Calm Calm - N/A   Clear
11:00 PM 42.1 °F - 42.1 °F 100% 30.20 in 3.0 mi Calm Calm - N/A   Clear
11:11 PM 43.0 °F - 42.1 °F 97% 30.20 in 2.0 mi Calm Calm - N/A   Clear
11:15 PM 42.1 °F - 41.0 °F 96% 30.20 in 1.2 mi Calm Calm - N/A   Partly Cloudy
11:17 PM 41.0 °F - 41.0 °F 100% 30.20 in 0.8 mi Calm Calm - N/A   Mist
11:53 PM 39.9 °F - 39.9 °F 100% 30.18 in 0.2 mi Calm Calm - N/A Fog Fog